Regional Weather Roundup
Issued by NWS Midland/Odessa, TX

Skip options and go directly to product.
Home | Oldest Version | Previous Version | Current Version | All | Graphics & Text | Save Text | Print | Product List | Glossary On

Skip product version selection by date and time.   
521
ASUS44 KMAF 272210
RWRMAF
MIDLAND AREA WEATHER ROUNDUP
NATIONAL WEATHER SERVICE MIDLAND TX
400 PM CST FRI FEB 27 2015

...IN SOUTHWEST TEXAS AND SOUTHEAST NEW MEXICO...

CITY           SKY/WX    TMP DP  RH WIND       PRES   REMARKS
ALPINE         CLOUDY    28  27  97 NE6       30.12S WCI  22
ANDREWS        LGT SNOW  20  17  87 MISG      30.20F
ARTESIA        CLOUDY    25  21  86 SE12      30.14F WCI  14
BIG SPRING     CLOUDY    21  17  84 NE14      30.27F WCI   8
CARLSBAD       CLOUDY    26  18  71 SE9       30.14F WCI  17
DRYDEN           N/A     36  27  69 E10       30.15F WCI  28
FORT STOCKTON  CLOUDY    27  26  96 E12       30.15F FOG     WCI  17
GUAD PASS      FOG       20  18  92 NE25G35   29.95F VSB 1   WCI   2
HOBBS          CLOUDY    19  18  93 E10       30.16F WCI   8
MARFA          CLOUDY    34  27  75 NE17      30.02S WCI  23
MIDLAND AIRPK  CLOUDY    22  19  88 E12       30.22F FOG     WCI  11
MIDLAND INTL   CLOUDY    21  18  88 E12       30.20F WCI   9
ODESSA         CLOUDY    21  17  84 E10       30.20F WCI  10
PECOS          CLOUDY    26  24  92 NE12      30.19S FOG     WCI  15
PRESIDIO       FAIR      49  30  47 NE18G25   29.98F
SEMINOLE       FLURRIES  20  16  84 SE9       30.20F WCI  10
SNYDER         CLOUDY    19  14  81 NE10      30.28F WCI   7
WINK           CLOUDY    26  18  71 E10       30.17F WCI  16
$$
...OTHER STATIONS IN TEXAS...

CITY           SKY/WX    TMP DP  RH WIND       PRES   REMARKS
ABILENE        CLOUDY    20  17  88 NE10      30.33F FOG     WCI   9
AMARILLO       LGT SNOW  15  10  80 SE13      30.21F WCI   1
AUSTIN         CLOUDY    36  26  67 N15       30.31F WCI  27
BROWNSVILLE    PTSUNNY   64  55  72 NE7       30.12F
CORPUS CHRISTI LGT RAIN  52  45  77 E18G26    30.18F
DALLAS FTW     SNOW      26  23  88 N10       30.42S VSB 1/2 WCI  16
DEL RIO        CLOUDY    38  32  79 E6        30.22F WCI  33
EL PASO        MOSUNNY   46  23  40 E13G24    29.91F
HOUSTON INT    CLOUDY    45  32  60 NE7       30.34F
LUBBOCK        LGT SNOW  17  11  77 E12       30.22F WCI   4
SAN ANGELO     CLOUDY    26  23  88 NE10      30.27S WCI  16
SAN ANTONIO    CLOUDY    33  30  88 N15       30.26F WCI  23
WACO           CLOUDY    30  24  78 N13       30.38S WCI  20
WICHITA FALLS  NOT AVBL
$$
...OTHER LOCATIONS IN NEW MEXICO...

CITY           SKY/WX    TMP DP  RH WIND       PRES   REMARKS
ALAMAGORDO     MOSUNNY   41  25  52 S6        29.94F WCI  37
ALBUQUERQUE    FLURRIES  27  21  78 N8        29.90F WCI  19
CANNON AFB     FLURRIES  14   9  80 SE10      30.11F WCI   1
CLOVIS         CLOUDY    12   9  85 SE12      30.13F WCI  -2
HOLLOMAN AFB   MOSUNNY   43  24  47 S9        29.92F WCI  37
ROSWELL        CLOUDY    23  17  78 SE10      30.12F WCI  12
RUIDOSO        FOG       18  16  93 SE6       29.93S VSB<1/4 WCI   9
SANTA FE       CLOUDY    20  12  71 SE17      29.88S WCI   5
TRUTH OR CONSE SUNNY     49  27  42 S12G17    29.84F
TUCUMCARI      CLOUDY    18  11  74 S15       30.10F WCI   4
$$

USA.gov is the U.S. government's official web portal to all federal, state and local government web resources and services.